ORBCOMM FM34 [+]

Last updated on Fri Feb 23 2018 00:19:46 GMT+0000 (Coordinated Universal Time)

1 25986U 99065G 18053.43661658 .00000050 00000-0 69502-4 0 9996 2 25986 45.0408 66.1442 0003890 325.0089 35.0501 14.32578441951584
UTC large
Height (km)
Speed (km/s)
/
Latitude / Longitude
Inclination (degrees)
Orbital Period (minutes)
Azimuth
Elevation
Range (km)
Doppler Factor

Next 0 passes for location: London (51.5072 / 0.1276)

Sorry there are no passes over London.